Location: White Mills Observatory
(37.5374°N, 86.0303°W)
Time: 10:52:44
(UTC-05:00)

Amateur Radio Satellites - All Passes

Search period start: 20 February 2017 10:22
Search period end: 21 February 2017 10:22
Location: White Mills Observatory, 37.5374°N, 86.0303°W

Satellite Date Start Highest point End Downlink Frequencies (MHz)
Time Altitude Azimuth
EO-79 20 Feb 10:28:32 10:30:02 12° 64° (ENE) 10:31:32 145.935-145.965
AO-73 20 Feb 10:32:09 10:35:55 26° 291° (WNW) 10:39:38 145.935
ISS 20 Feb 10:42:31 10:45:45 56° 323° (NW) 10:49:01 437.550
POLYITAN 1 20 Feb 10:42:44 10:45:31 17° 67° (ENE) 10:48:20 437.675
UWE-3 20 Feb 10:43:34 10:45:23 12° 296° (WNW) 10:47:12 435.000/436.395/437.385
QB50P2 20 Feb 10:45:07 10:48:11 20° 68° (ENE) 10:51:17 145.880/145.840
Oscar 11 20 Feb 10:46:48 10:49:55 20° 292° (WNW) 10:53:01 .
NANOSAT C BR1 20 Feb 10:47:45 10:50:36 18° 67° (ENE) 10:53:28 145.865
AIST 2D 20 Feb 10:52:35 10:55:44 31° 73° (ENE) 10:58:55 435.315
YUBILEINY 20 Feb 10:55:20 11:03:35 46° 88° (E) 11:11:50 435.215
DELFI C3 20 Feb 11:04:08 11:07:39 32° 288° (WNW) 11:11:09 145.870
O/OREOS (USA 219) 20 Feb 11:19:02 11:22:44 25° 258° (WSW) 11:26:27 437.305
Tancredo 1 20 Feb 11:22:13 11:24:58 24° 330° (NNW) 11:27:43 437.200
UNISAT 6 20 Feb 11:29:18 11:30:58 12° 270° (W) 11:32:40 437.425
TIGRISAT 20 Feb 11:31:19 11:33:06 12° 269° (W) 11:34:54 435.000
BUGSAT 1 20 Feb 11:43:33 11:46:43 23° 69° (ENE) 11:49:55 437.445
ESTCUBE 1 20 Feb 11:50:41 11:54:58 43° 99° (E) 11:59:13 437.505/2401.250
FO-29 20 Feb 11:52:46 11:58:38 32° 267° (W) 12:05:08 435.910
DUCHIFAT 1 20 Feb 11:57:07 12:01:17 76° 259° (WSW) 12:05:30 145.980
SPROUT 20 Feb 11:58:24 12:00:18 13° 92° (E) 12:02:11 437.525
EO-79 20 Feb 12:01:09 12:05:17 56° 260° (W) 12:09:27 145.935-145.965
POLYITAN 1 20 Feb 12:17:07 12:20:59 35° 262° (W) 12:24:55 437.675
QB50P2 20 Feb 12:20:01 12:23:45 31° 263° (W) 12:27:32 145.880/145.840
ISS 20 Feb 12:21:25 12:22:48 12° 341° (NNW) 12:24:12 437.550
NANOSAT C BR1 20 Feb 12:22:14 12:26:03 34° 263° (W) 12:29:54 145.865
AIST 2D 20 Feb 12:27:23 12:29:02 13° 267° (W) 12:30:43 435.315
VELOX 1 20 Feb 12:41:04 12:45:22 50° 100° (E) 12:49:39 145.980
Oscar 19 20 Feb 12:46:56 12:51:37 36° 70° (ENE) 12:56:19 437.125/150
Gurwin Techsat 1B 20 Feb 12:47:02 12:50:53 21° 65° (ENE) 12:54:44 435.225
50 SAT 20 Feb 12:50:35 12:53:55 43° 99° (E) 12:57:13 437.505
DX 1 20 Feb 12:52:05 12:55:50 28° 97° (E) 12:59:34 434.975-435.025
YUBILEINY 20 Feb 12:52:33 13:00:28 36° 287° (WNW) 13:08:25 435.215
UKube-1 20 Feb 13:15:35 13:19:35 36° 99° (E) 13:23:33 .
BUGSAT 1 20 Feb 13:18:41 13:21:58 24° 264° (W) 13:25:17 437.445
ESTCUBE 1 20 Feb 13:28:38 13:31:23 16° 294° (WNW) 13:34:09 437.505/2401.250
SPROUT 20 Feb 13:32:17 13:36:27 49° 287° (WNW) 13:40:36 437.525
AO-7 20 Feb 14:06:41 14:13:36 30° 59° (ENE) 14:20:30 .
ITUPSAT 1 20 Feb 14:18:47 14:20:10 11° 91° (E) 14:21:33 437.325
VELOX 1 20 Feb 14:19:06 14:21:22 14° 295° (WNW) 14:23:37 145.980
AO-85 20 Feb 14:22:29 14:25:34 22° 51° (NE) 14:28:40 145.980
Gurwin Techsat 1B 20 Feb 14:25:22 14:30:28 47° 261° (W) 14:35:35 435.225
Oscar 19 20 Feb 14:26:50 14:30:58 24° 265° (W) 14:35:07 437.125/150
BEESAT 20 Feb 14:28:02 14:30:46 15° 93° (E) 14:33:28 436.000
DX 1 20 Feb 14:28:26 14:31:52 23° 292° (WNW) 14:35:17 434.975-435.025
ITAMSAT 1 20 Feb 14:46:58 14:51:58 51° 71° (ENE) 14:57:01 435.822/435.867
UKube-1 20 Feb 14:52:25 14:55:18 18° 294° (WNW) 14:58:13 .
ISS 20 Feb 15:36:31 15:38:16 14° 22° (NNE) 15:40:01 437.550
MOZHAYETS 4 20 Feb 15:37:34 15:41:34 29° 96° (E) 15:45:32
ITUPSAT 1 20 Feb 15:53:38 15:58:25 67° 286° (WNW) 16:03:09 437.325
AO-7 20 Feb 15:57:35 16:05:49 61° 257° (WSW) 16:14:05 .
AO-85 20 Feb 16:02:34 16:05:55 27° 246° (WSW) 16:09:20 145.980
BEESAT 20 Feb 16:04:09 16:08:48 50° 287° (WNW) 16:13:24 436.000
Tancredo 1 20 Feb 16:14:32 16:17:09 23° 29° (NNE) 16:19:47 437.200
CUBESAT XI-V 20 Feb 16:23:26 16:25:32 13° 91° (E) 16:27:36 437.345
ITAMSAT 1 20 Feb 16:28:18 16:31:41 17° 267° (W) 16:35:05 435.822/435.867
RS-15 20 Feb 16:41:27 16:48:20 18° 97° (E) 16:55:20 29.354- 29.394
PCSat 20 Feb 16:46:20 16:50:21 22° 106° (ESE) 16:54:23 145.827
KKS-1 20 Feb 16:48:42 16:52:57 42° 99° (E) 16:57:11 437.445
CUTE-I 20 Feb 16:56:37 16:59:40 16° 62° (ENE) 17:02:43 437.470
DOVE 4 20 Feb 17:04:27 17:06:43 14° 66° (ENE) 17:08:59 437.250
ISS 20 Feb 17:11:56 17:15:13 75° 39° (NE) 17:18:28 437.550
BEESAT 3 20 Feb 17:14:43 17:18:45 83° 58° (ENE) 17:22:44 437.485
MOZHAYETS 4 20 Feb 17:14:50 17:18:35 25° 291° (WNW) 17:22:18
STARS 20 Feb 17:38:09 17:42:34 67° 102° (ESE) 17:46:58 437.465
XW-2F 20 Feb 17:40:16 17:43:41 32° 72° (ENE) 17:47:09 145.980 - 146.000
BEESAT 2 20 Feb 17:40:41 17:44:43 63° 58° (ENE) 17:48:43 435.950
XW-2D 20 Feb 17:41:24 17:44:55 35° 73° (ENE) 17:48:27 145.860 - 145.880
KAITUO 1B 20 Feb 17:44:51 17:48:13 30° 72° (ENE) 17:51:35 145.475/437.950
XW-2B 20 Feb 17:46:13 17:49:48 39° 73° (ENE) 17:53:25 145.730 - 145.750
Tancredo 1 20 Feb 17:50:32 17:53:32 36° 226° (SW) 17:56:29 437.200
XW-2C 20 Feb 17:54:27 17:58:10 51° 75° (ENE) 18:01:56 145.795 - 145.815
CUBESAT XI-V 20 Feb 17:58:43 18:03:12 53° 286° (WNW) 18:07:39 437.345
LilacSat-2 20 Feb 18:05:14 18:09:06 76° 76° (ENE) 18:12:59 437.200
CUTE 1.7 + AOD 2 20 Feb 18:17:32 18:17:50 10° 64° (ENE) 18:18:09 437.475
M-CUBED/EXP-1 PRIME 20 Feb 18:20:36 18:24:15 65° 288° (WNW) 18:28:09 437.505
NUDT-PHONESAT 20 Feb 18:26:03 18:29:47 73° 259° (WSW) 18:33:34 437.300
KKS-1 20 Feb 18:26:17 18:29:09 17° 294° (WNW) 18:31:59 437.445
PCSat 20 Feb 18:28:11 18:33:22 47° 302° (WNW) 18:38:37 145.827
HO-68 20 Feb 18:32:12 18:38:26 33° 64° (ENE) 18:44:40 435.675
CUTE-I 20 Feb 18:33:51 18:39:07 65° 258° (WSW) 18:44:27 437.470
DOVE 4 20 Feb 18:40:09 18:44:05 40° 261° (W) 18:48:00 437.250
RS-15 20 Feb 18:46:53 18:58:43 81° 117° (ESE) 19:11:05 29.354- 29.394
CUBEBUG 2 20 Feb 19:12:00 19:15:06 19° 67° (ENE) 19:18:17 437.445
XW-2F 20 Feb 19:15:41 19:17:55 15° 267° (W) 19:20:10 145.980 - 146.000
STARS 20 Feb 19:17:08 19:18:19 11° 297° (WNW) 19:19:28 437.465
XW-2D 20 Feb 19:17:14 19:19:14 14° 268° (W) 19:21:13 145.860 - 145.880
KAITUO 1B 20 Feb 19:19:58 19:22:17 15° 267° (W) 19:24:36 145.475/437.950
SEEDS 20 Feb 19:21:17 19:25:10 36° 72° (ENE) 19:29:04 437.485
XW-2B 20 Feb 19:22:33 19:24:10 12° 268° (W) 19:25:47 145.730 - 145.750
STRAND 1 20 Feb 19:27:00 19:31:31 30° 96° (E) 19:35:59 437.568
AAUSAT CUBESAT 2 20 Feb 19:27:42 19:30:48 21° 69° (ENE) 19:33:54 437.432
XW-2A 20 Feb 19:31:45 19:35:04 55° 260° (W) 19:38:25 145.665 - 145.685
CUTE 1.7 + AOD 2 20 Feb 19:48:48 19:53:04 67° 259° (WSW) 19:57:21 437.475
AO-73 20 Feb 19:50:08 19:53:00 17° 66° (ENE) 19:55:54 145.935
UWE-3 20 Feb 19:59:44 20:03:49 40° 72° (ENE) 20:08:02 435.000/436.395/437.385
Oscar 11 20 Feb 20:03:23 20:06:37 21° 68° (ENE) 20:09:52 .
HO-68 20 Feb 20:19:07 20:25:54 45° 260° (W) 20:32:44 435.675
ZACube-1 20 Feb 20:32:50 20:37:07 56° 74° (ENE) 20:41:31 437.345
CUBEBUG 2 20 Feb 20:47:29 20:51:25 34° 263° (W) 20:55:31 437.445
SEEDS 20 Feb 20:58:13 21:00:57 17° 267° (W) 21:03:41 437.485
RS-15 20 Feb 21:02:02 21:12:39 34° 321° (NW) 21:23:34 29.354- 29.394
AAUSAT CUBESAT 2 20 Feb 21:02:26 21:06:04 29° 264° (W) 21:09:42 437.432
STRAND 1 20 Feb 21:06:10 21:10:35 29° 292° (WNW) 21:14:59 437.568
YUBILEINY 20 Feb 21:08:56 21:14:57 20° 66° (ENE) 21:20:52 435.215
AO-73 20 Feb 21:24:45 21:28:52 40° 262° (W) 21:33:06 145.935
PRISM 20 Feb 21:35:16 21:38:41 25° 97° (E) 21:42:04 437.425
UWE-3 20 Feb 21:37:42 21:40:27 16° 268° (W) 21:43:14 435.000/436.395/437.385
Oscar 11 20 Feb 21:38:39 21:42:31 31° 263° (W) 21:46:26 .
UNISAT 6 20 Feb 21:44:35 21:47:11 15° 92° (E) 21:49:47 437.425
TIGRISAT 20 Feb 21:46:38 21:49:09 14° 91° (E) 21:51:39 435.000
DELFI C3 20 Feb 21:46:51 21:50:49 80° 258° (WSW) 21:54:48 145.870
ZACube-1 20 Feb 22:12:11 22:13:44 12° 270° (W) 22:15:19 437.345
ESTCUBE 1 20 Feb 22:48:16 22:52:16 32° 70° (ENE) 22:56:16 437.505/2401.250
SO-50 20 Feb 22:52:37 22:55:52 19° 110° (ESE) 22:59:06 436.795
FO-29 20 Feb 23:03:38 23:11:08 50° 98° (E) 23:17:57 435.910
YUBILEINY 20 Feb 23:03:58 23:12:43 80° 266° (W) 23:21:23 435.215
PRISM 20 Feb 23:10:41 23:13:49 22° 291° (WNW) 23:16:57 437.425
UNISAT 6 20 Feb 23:19:34 23:24:08 51° 287° (WNW) 23:28:39 437.425
TIGRISAT 20 Feb 23:21:31 23:26:05 52° 287° (WNW) 23:30:37 435.000
RS-15 20 Feb 23:23:17 23:30:46 17° 356° (N) 23:38:16 29.354- 29.394
50 SAT 20 Feb 23:24:17 23:26:03 13° 68° (ENE) 23:27:49 437.505
VELOX 1 20 Feb 23:36:24 23:40:22 34° 71° (ENE) 23:44:20 145.980
DUCHIFAT 1 20 Feb 23:43:48 23:46:54 19° 94° (E) 23:49:58 145.980
DX 1 20 Feb 23:46:14 23:49:21 20° 67° (ENE) 23:52:28 434.975-435.025
EO-79 20 Feb 23:48:00 23:51:37 26° 96° (E) 23:55:12 145.935-145.965
O/OREOS (USA 219) 20 Feb 23:49:30 23:53:46 46° 106° (ESE) 23:58:04 437.305
AIST 2D 20 Feb 23:52:24 23:55:54 51° 100° (E) 23:59:21 435.315
POLYITAN 1 21 Feb 00:03:30 00:07:34 40° 99° (E) 00:11:36 437.675
QB50P2 21 Feb 00:06:10 00:10:19 46° 99° (E) 00:14:26 145.880/145.840
NANOSAT C BR1 21 Feb 00:08:00 00:12:03 41° 99° (E) 00:16:04 145.865
UKube-1 21 Feb 00:08:25 00:11:54 24° 69° (ENE) 00:15:24 .
SPROUT 21 Feb 00:23:10 00:27:24 86° 258° (WSW) 00:31:41 437.525
JUGNU 21 Feb 00:25:00 00:27:19 12° 174° (S) 00:29:38 437.505
ESTCUBE 1 21 Feb 00:25:37 00:29:04 21° 265° (W) 00:32:33 437.505/2401.250
SO-50 21 Feb 00:31:31 00:36:00 44° 305° (NW) 00:40:27 436.795
FO-29 21 Feb 00:49:04 00:55:42 32° 296° (WNW) 01:01:55 435.910
50 SAT 21 Feb 00:55:44 00:58:53 31° 262° (W) 01:02:03 437.505
BUGSAT 1 21 Feb 01:01:10 01:05:19 51° 100° (E) 01:09:27 437.445
Oscar 19 21 Feb 01:01:46 01:04:29 14° 92° (E) 01:07:12 437.125/150
YUBILEINY 21 Feb 01:04:29 01:07:58 13° 284° (WNW) 01:11:28 435.215
VELOX 1 21 Feb 01:13:49 01:16:53 19° 266° (W) 01:19:58 145.980
DUCHIFAT 1 21 Feb 01:18:49 01:22:35 31° 289° (WNW) 01:26:21 145.980
DX 1 21 Feb 01:21:24 01:25:18 33° 262° (W) 01:29:13 434.975-435.025
EO-79 21 Feb 01:23:48 01:27:15 24° 291° (WNW) 01:30:40 145.935-145.965
ITUPSAT 1 21 Feb 01:24:00 01:25:41 12° 62° (ENE) 01:27:23 437.325
O/OREOS (USA 219) 21 Feb 01:30:39 01:33:25 16° 303° (WNW) 01:36:12 437.305
BEESAT 21 Feb 01:32:58 01:35:40 15° 64° (ENE) 01:38:22 436.000
PCSat 21 Feb 01:36:07 01:38:58 14° 45° (NE) 01:41:48 145.827
RS-15 21 Feb 01:39:29 01:49:34 28° 32° (NNE) 01:59:22 29.354- 29.394
POLYITAN 1 21 Feb 01:40:19 01:43:00 16° 294° (WNW) 01:45:40 437.675
QB50P2 21 Feb 01:43:24 01:45:41 14° 294° (WNW) 01:47:57 145.880/145.840
UKube-1 21 Feb 01:44:15 01:47:49 25° 264° (W) 01:51:25 .
NANOSAT C BR1 21 Feb 01:44:49 01:47:23 16° 294° (WNW) 01:49:58 145.865
JUGNU 21 Feb 02:12:51 02:15:28 13° 184° (S) 02:18:06 437.505
MOZHAYETS 4 21 Feb 02:37:45 02:41:21 23° 68° (ENE) 02:44:58
BUGSAT 1 21 Feb 02:38:20 02:40:12 13° 295° (WNW) 02:42:04 437.445
Oscar 19 21 Feb 02:39:07 02:44:09 59° 287° (WNW) 02:49:10 437.125/150
Gurwin Techsat 1B 21 Feb 02:43:13 02:48:34 81° 103° (ESE) 02:53:54 435.225
ITUPSAT 1 21 Feb 02:58:05 03:02:52 73° 259° (WSW) 03:07:41 437.325
ITAMSAT 1 21 Feb 03:02:32 03:06:26 21° 94° (E) 03:10:19 435.822/435.867
SRMSAT 21 Feb 03:02:42 03:05:14 13° 174° (S) 03:07:47 437.500
BEESAT 21 Feb 03:08:16 03:12:56 55° 259° (W) 03:17:39 436.000
PCSat 21 Feb 03:17:40 03:23:07 90° 203° (SSW) 03:28:33 145.827
CUBESAT XI-V 21 Feb 03:25:59 03:27:24 11° 63° (ENE) 03:28:49 437.345
KKS-1 21 Feb 03:44:56 03:48:47 30° 70° (ENE) 03:52:40 437.445
RS-15 21 Feb 03:52:00 04:04:24 80° 59° (ENE) 04:16:11 29.354- 29.394
AO-7 21 Feb 04:01:20 04:09:26 53° 102° (ESE) 04:17:28 .
MOZHAYETS 4 21 Feb 04:14:10 04:18:18 32° 263° (W) 04:22:29
Gurwin Techsat 1B 21 Feb 04:25:41 04:27:47 12° 299° (WNW) 04:29:53 435.225
STARS 21 Feb 04:32:40 04:36:48 45° 72° (ENE) 04:40:59 437.465
AO-85 21 Feb 04:36:43 04:38:38 12° 109° (ESE) 04:40:31 145.980
ITAMSAT 1 21 Feb 04:41:06 04:46:02 43° 289° (WNW) 04:50:57 435.822/435.867
SRMSAT 21 Feb 04:50:52 04:53:33 13° 185° (S) 04:56:14 437.500
CUBESAT XI-V 21 Feb 04:59:28 05:04:09 71° 259° (WSW) 05:08:49 437.345
M-CUBED/EXP-1 PRIME 21 Feb 05:05:25 05:08:47 70° 253° (WSW) 05:12:04 437.505
KKS-1 21 Feb 05:21:58 05:25:21 21° 265° (W) 05:28:45 437.445
AO-7 21 Feb 05:54:40 06:01:48 33° 300° (WNW) 06:08:56 .
NUDT-PHONESAT 21 Feb 06:00:31 06:02:01 12° 92° (E) 06:03:31 437.300
RS-15 21 Feb 06:06:14 06:15:27 27° 259° (W) 06:24:25 29.354- 29.394
STARS 21 Feb 06:11:03 06:13:21 14° 267° (W) 06:15:41 437.465
AO-85 21 Feb 06:14:04 06:18:39 61° 303° (WNW) 06:22:54 145.980
DOVE 4 21 Feb 06:39:27 06:44:00 57° 101° (E) 06:48:50 437.250
STRAND 1 21 Feb 06:40:54 06:45:31 36° 70° (ENE) 06:50:11 437.568
XW-2F 21 Feb 06:48:00 06:51:48 63° 101° (E) 06:55:33 145.980 - 146.000
XW-2D 21 Feb 06:49:36 06:53:25 71° 101° (E) 06:57:12 145.860 - 145.880
KAITUO 1B 21 Feb 06:51:30 06:55:15 57° 100° (E) 06:58:56 145.475/437.950
CUTE-I 21 Feb 06:52:47 06:58:07 60° 101° (E) 07:03:25 437.470
XW-2B 21 Feb 06:54:30 06:58:21 80° 102° (ESE) 07:02:09 145.730 - 145.750
XW-2C 21 Feb 07:02:56 07:06:47 78° 281° (WNW) 07:10:34 145.795 - 145.815
BEESAT 3 21 Feb 07:03:36 07:06:31 21° 111° (ESE) 07:09:30 437.485
LilacSat-2 21 Feb 07:14:37 07:18:23 51° 285° (WNW) 07:22:06 437.200
SO-50 21 Feb 07:26:04 07:27:51 12° 42° (NE) 07:29:37 436.795
BEESAT 2 21 Feb 07:31:28 07:34:03 17° 110° (ESE) 07:36:38 435.950
NUDT-PHONESAT 21 Feb 07:32:35 07:36:07 38° 286° (WNW) 07:39:35 437.300
CUTE 1.7 + AOD 2 21 Feb 07:36:12 07:39:35 23° 95° (E) 07:42:56 437.475
HO-68 21 Feb 07:48:39 07:55:19 41° 99° (E) 08:01:56 435.675
UWE-3 21 Feb 07:54:22 07:54:51 10° 89° (E) 07:55:20 435.000/436.395/437.385
DOVE 4 21 Feb 08:18:53 08:21:17 14° 294° (WNW) 08:23:44 437.250
STRAND 1 21 Feb 08:20:35 08:24:43 24° 265° (W) 08:28:53 437.568
PRISM 21 Feb 08:23:40 08:26:02 15° 66° (ENE) 08:28:24 437.425
ZACube-1 21 Feb 08:24:48 08:27:01 13° 91° (E) 08:29:13 437.345
XW-2A 21 Feb 08:28:19 08:31:33 39° 286° (WNW) 08:34:47 145.665 - 145.685
CUTE-I 21 Feb 08:34:16 08:37:38 17° 297° (WNW) 08:40:58 437.470
CUBEBUG 2 21 Feb 08:39:26 08:44:08 57° 99° (E) 08:48:47 437.445
BEESAT 3 21 Feb 08:40:31 08:43:57 29° 307° (NW) 08:47:25 437.485
SEEDS 21 Feb 08:42:06 08:46:18 87° 279° (W) 08:50:26 437.485
UNISAT 6 21 Feb 08:43:48 08:44:19 10° 62° (ENE) 08:44:50 437.425
AAUSAT CUBESAT 2 21 Feb 08:45:51 08:49:50 47° 99° (E) 08:53:46 437.432
Tancredo 1 21 Feb 08:51:54 08:53:57 16° 129° (SE) 08:56:00 437.200
SO-50 21 Feb 09:04:26 09:08:57 87° 235° (SW) 09:13:24 436.795
BEESAT 2 21 Feb 09:07:53 09:11:31 35° 306° (NW) 09:15:13 435.950
CUTE 1.7 + AOD 2 21 Feb 09:11:50 09:15:20 26° 290° (WNW) 09:18:48 437.475
AO-73 21 Feb 09:14:22 09:18:45 44° 98° (E) 09:23:01 145.935
FO-29 21 Feb 09:14:34 09:19:21 20° 58° (ENE) 09:24:23 435.910
UWE-3 21 Feb 09:27:04 09:31:44 70° 285° (WNW) 09:36:20 435.000/436.395/437.385
Oscar 11 21 Feb 09:27:12 09:31:26 52° 100° (E) 09:35:38 .
DELFI C3 21 Feb 09:27:21 09:29:28 14° 93° (E) 09:31:35 145.870
HO-68 21 Feb 09:36:31 09:42:53 36° 295° (WNW) 09:49:14 435.675
ISS 21 Feb 09:50:01 09:53:16 69° 139° (SE) 09:56:33 437.550
PRISM 21 Feb 09:57:09 10:00:58 39° 261° (W) 10:04:49 437.425
ZACube-1 21 Feb 09:59:08 10:03:35 52° 286° (WNW) 10:07:57 437.345
O/OREOS (USA 219) 21 Feb 10:01:06 10:05:40 66° 68° (ENE) 10:10:13 437.305
YUBILEINY 21 Feb 10:08:00 10:14:36 24° 82° (E) 10:21:12 435.215
